DB0TGO-13 Weather Reports


Display with metric or nautical units.
time (UTC)temp
F
wind
direction
speed
MPH
gust
MPH
rain 1hr
in
rain 24hr
in
rain mn
in
humidity
%
barometer
mb
20260506183002 52 50 10.0 0.0 0.00 0.00 0.00 83 1001.6
20260506181502 53 40 9.0 0.0 0.00 0.00 0.00 86 1001.5
20260506180003 53 40 9.0 0.0 0.00 0.00 0.00 86 1001.5
20260506174502 53 40 9.0 0.0 0.00 0.00 0.00 84 1001.5
20260506173002 53 30 7.0 0.0 0.00 0.00 0.00 84 1001.5
20260506171502 54 50 10.0 0.0 0.00 0.00 0.00 82 1001.3
20260506170002 54 50 10.0 0.0 0.00 0.00 0.00 82 1001.3
20260506164502 54 50 10.0 0.0 0.00 0.00 0.00 86 1001.7
20260506163002 54 50 7.0 0.0 0.00 0.00 0.00 86 1001.7
20260506161502 54 50 7.0 0.0 0.00 0.00 0.00 85 1001.7
20260506160003 54 30 5.0 0.0 0.00 0.00 0.00 85 1001.7
20260506154502 54 30 5.0 0.0 0.00 0.00 0.00 85 1001.5
20260506153003 54 30 5.0 0.0 0.00 0.00 0.00 85 1001.5
20260506151502 53 30 5.0 0.0 0.00 0.00 0.00 88 1001.5
20260506150002 53 30 8.0 0.0 0.00 0.00 0.00 88 1001.5
20260506144502 53 20 7.0 0.0 0.00 0.00 0.00 88 1001.5
20260506143002 53 20 7.0 0.0 0.00 0.00 0.00 88 1001.5
20260506141502 53 20 7.0 0.0 0.00 0.00 0.00 86 1001.4
20260506140002 53 360 8.0 0.0 0.00 0.00 0.00 86 1001.4
20260506134502 54 360 8.0 0.0 0.00 0.00 0.00 87 1001.3
20260506133002 54 20 6.0 0.0 0.00 0.00 0.00 87 1001.3
20260506131502 53 20 6.0 0.0 0.00 0.00 0.00 88 1001.3
20260506130003 53 10 5.0 0.0 0.00 0.00 0.00 88 1001.3
20260506124502 53 20 5.0 0.0 0.00 0.00 0.00 88 1001.1
20260506123002 53 20 5.0 0.0 0.00 0.00 0.00 88 1001.1
20260506121502 54 10 6.0 0.0 0.00 0.00 0.00 88 1000.7
20260506120002 54 10 6.0 0.0 0.00 0.00 0.00 88 1000.7
20260506114502 53 10 6.0 0.0 0.00 0.00 0.00 90 1000.6
20260506113002 53 10 6.0 0.0 0.00 0.00 0.00 90 1000.6
20260506111502 52 10 6.0 0.0 0.00 0.00 0.00 91 1000.4
20260506110002 52 360 9.0 0.0 0.00 0.00 0.00 91 1000.4
20260506104503 52 360 9.0 0.0 0.00 0.00 0.00 92 1000.1
20260506103002 52 10 8.0 0.0 0.00 0.00 0.00 92 1000.1
20260506101502 52 10 8.0 0.0 0.00 0.00 0.00 93 999.9
20260506100002 52 360 8.0 0.0 0.00 0.00 0.00 93 999.9
20260506094502 51 360 7.0 0.0 0.00 0.00 0.00 94 999.6
20260506093002 51 360 7.0 0.0 0.00 0.00 0.00 94 999.6
20260506091502 52 10 7.0 0.0 0.00 0.00 0.00 96 999.4
20260506090003 52 10 7.0 0.0 0.00 0.00 0.00 96 999.4
20260506084502 51 20 8.0 0.0 0.00 0.00 0.00 96 999.2
20260506083003 51 20 8.0 0.0 0.00 0.00 0.00 96 999.2
20260506081502 51 30 6.0 0.0 0.00 0.00 0.00 97 999.1
20260506073002 51 40 8.0 0.0 0.00 0.00 0.00 97 999.0
20260506071502 51 40 8.0 0.0 0.00 0.00 0.00 94 998.8
20260506061502 51 40 8.0 0.0 0.00 0.00 0.00 95 998.9
20260506044502 51 40 7.0 0.0 0.00 0.00 0.00 96 999.5
20260506043002 51 30 6.0 0.0 0.00 0.00 0.00 96 999.5
20260506041502 51 30 6.0 0.0 0.00 0.00 0.00 97 999.8
20260506040002 51 30 6.0 0.0 0.00 0.00 0.00 97 999.8
20260506034502 51 10 6.0 0.0 0.00 0.00 0.00 96 1000.0
20260506033002 51 10 6.0 0.0 0.00 0.00 0.00 96 1000.0
20260506031502 52 30 6.0 0.0 0.00 0.00 0.00 96 1000.3
20260506030003 52 30 6.0 0.0 0.00 0.00 0.00 96 1000.3
20260505204502 57 40 11.0 0.0 0.00 0.00 0.00 83 1002.1
20260505203002 57 40 11.0 0.0 0.00 0.00 0.00 83 1002.1
20260505201502 58 40 11.0 0.0 0.00 0.00 0.00 81 1002.2
20260505200002 58 40 10.0 0.0 0.00 0.00 0.00 81 1002.2
20260505194502 59 40 9.0 0.0 0.00 0.00 0.00 79 1002.0
20260505193003 59 40 9.0 0.0 0.00 0.00 0.00 79 1002.0
20260505191502 60 40 9.0 0.0 0.00 0.00 0.00 78 1001.8
20260505190003 60 60 10.0 0.0 0.00 0.00 0.00 78 1001.8
20260505184502 62 60 10.0 0.0 0.00 0.00 0.00 74 1001.9